EW4610 Weather Reports


time (UTC)temp
C
wind
direction
speed
KPH
gust
KPH
rain 1hr
cm
rain 24hr
cm
rain mn
cm
humidity
%
barometer
mb
20260506094636 15 4.8 12.9 0.00 0.00 0.00 51 1014.2
20260506094105 15 1.6 3.2 0.00 0.00 0.00 51 1014.0
20260506093405 15 6.4 11.3 0.00 0.00 0.00 50 1014.2
20260506092825 15 4.8 6.4 0.00 0.00 0.00 51 1014.0
20260506092253 15 8.0 14.5 0.00 0.00 0.00 53 1014.0
20260506091702 15 12.9 20.9 0.00 0.00 0.00 52 1013.8
20260506091131 15 3.2 14.5 0.00 0.00 0.00 54 1013.8
20260506090559 14 3.2 6.4 0.00 0.00 0.00 55 1013.7
20260506090038 14 4.8 6.4 0.00 0.00 0.00 55 1013.7
20260506085436 13 9.7 16.1 0.00 0.00 0.00 56 1013.8
20260506084906 13 4.8 11.3 0.00 0.00 0.00 56 1013.8
20260506084335 14 12.9 24.1 0.00 0.00 0.00 58 1013.7
20260506083702 13 4.8 9.7 0.00 0.00 0.00 59 1013.7
20260506083132 13 4.8 16.1 0.00 0.00 0.00 62 1013.7
20260506082616 12 6.4 9.7 0.00 0.00 0.00 60 1013.6
20260506081931 13 6.4 14.5 0.00 0.00 0.00 61 1013.7
20260506081145 13 6.4 12.9 0.00 0.00 0.00 66 1013.7
20260506080514 12 3.2 8.0 0.00 0.00 0.00 70 1013.6
20260506073448 10 0.0 1.6 0.00 0.00 0.00 74 1013.6
20260506072912 10 0.0 6.4 0.00 0.00 0.00 74 1013.6
20260506072323 10 3.2 6.4 0.00 0.00 0.00 75 1013.4
20260506071823 9 3.2 9.7 0.00 0.00 0.00 76 1013.6
20260506071322 9 0.0 3.2 0.00 0.00 0.00 76 1013.7
20260506070822 9 4.8 6.4 0.00 0.00 0.00 76 1013.5
20260506070318 8 1.6 3.2 0.00 0.00 0.00 76 1013.6
20260506062318 8 0.0 3.2 0.00 0.00 0.00 79 1013.2
20260506061818 8 1.6 6.4 0.00 0.00 0.00 79 1013.2
20260506061317 8 3.2 6.4 0.00 0.00 0.00 79 1013.4
20260506060826 8 3.2 6.4 0.00 0.00 0.00 79 1013.2
20260506060322 8 8.0 11.3 0.00 0.00 0.00 79 1013.3
20260506051134 7 3.2 4.8 0.00 0.00 0.00 81 1012.9
20260506050549 7 1.6 6.4 0.00 0.00 0.00 81 1013.1
20260506044857 7 1.6 3.2 0.00 0.00 0.00 81 1012.9
20260506044327 7 1.6 4.8 0.00 0.00 0.00 81 1013.0
20260506043822 8 6.4 11.3 0.00 0.00 0.00 81 1012.9
20260506043321 8 4.8 12.9 0.00 0.00 0.00 80 1012.9
20260506042821 8 3.2 6.4 0.00 0.00 0.00 80 1012.9
20260506042320 8 3.2 8.0 0.00 0.00 0.00 80 1012.9
20260506041820 8 4.8 11.3 0.00 0.00 0.00 80 1012.9
20260506041320 8 8.0 14.5 0.00 0.00 0.00 80 1012.8
20260506040819 8 6.4 12.9 0.00 0.00 0.00 79 1012.9
20260506040318 8 3.2 9.7 0.00 0.00 0.00 79 1012.8
20260506035817 8 3.2 6.4 0.00 0.00 0.00 79 1012.7
20260506035317 8 3.2 8.0 0.00 0.00 0.00 79 1012.8
20260506034817 8 4.8 8.0 0.00 0.00 0.00 78 1012.6
20260506034316 8 3.2 6.4 0.00 0.00 0.00 78 1012.8
20260506033816 8 3.2 3.2 0.00 0.00 0.00 78 1012.7
20260506033315 8 1.6 4.8 0.00 0.00 0.00 78 1012.6
20260506032814 8 3.2 6.4 0.00 0.00 0.00 78 1013.0
20260506032244 8 1.6 3.2 0.00 0.00 0.00 78 1013.0
20260506031714 8 3.2 11.3 0.00 0.00 0.00 78 1013.0
20260506031123 8 3.2 11.3 0.00 0.00 0.00 78 1012.7
20260506030553 8 0.0 1.6 0.00 0.00 0.00 79 1012.9
20260506030038 9 3.2 8.0 0.00 0.00 0.00 79 1012.7
20260506025437 9 3.2 6.4 0.00 0.00 0.00 79 1012.9
20260506024906 9 1.6 6.4 0.00 0.00 0.00 79 1012.8
20260506024321 9 3.2 4.8 0.00 0.00 0.00 79 1012.8
20260506023821 10 1.6 6.4 0.00 0.00 0.00 78 1012.9
20260506023320 10 3.2 8.0 0.00 0.00 0.00 78 1013.0
20260506022819 10 3.2 6.4 0.00 0.00 0.00 78 1012.9
20260506022234 10 0.0 3.2 0.00 0.00 0.00 78 1013.0
20260506021704 10 3.2 6.4 0.00 0.00 0.00 78 1012.9
20260506021133 10 6.4 12.9 0.00 0.00 0.00 77 1012.9
20260506020548 10 3.2 6.4 0.00 0.00 0.00 77 1013.1
20260506020032 10 3.2 9.7 0.00 0.00 0.00 77 1013.1
20260506015447 10 0.0 3.2 0.00 0.00 0.00 77 1013.1
20260506014916 10 0.0 1.6 0.00 0.00 0.00 77 1013.1
20260506014326 10 1.6 6.4 0.00 0.00 0.00 76 1013.0
20260506013825 10 1.6 4.8 0.00 0.00 0.00 76 1013.2
20260506013325 10 1.6 4.8 0.00 0.00 0.00 76 1013.1
20260506012824 10 3.2 8.0 0.00 0.00 0.00 75 1013.2
20260506012319 10 4.8 8.0 0.00 0.00 0.00 75 1013.2
20260506011818 10 1.6 4.8 0.00 0.00 0.00 75 1013.3
20260506011317 10 3.2 6.4 0.00 0.00 0.00 75 1013.3
20260506010816 10 3.2 6.4 0.00 0.00 0.00 75 1013.3
20260506010315 10 3.2 6.4 0.00 0.00 0.00 75 1013.2
20260506005815 10 0.0 3.2 0.00 0.00 0.00 75 1013.3
20260506005314 10 0.0 3.2 0.00 0.00 0.00 74 1013.3
20260506004814 10 4.8 6.4 0.00 0.00 0.00 74 1013.2
20260506004313 10 3.2 8.0 0.00 0.00 0.00 74 1013.4
20260506003758 10 3.2 9.7 0.00 0.00 0.00 74 1013.2
20260506003122 10 1.6 9.7 0.00 0.00 0.00 74 1013.3
20260506002552 10 0.0 6.4 0.00 0.00 0.00 74 1013.4
20260506002021 10 3.2 14.5 0.00 0.00 0.00 74 1013.4
20260506001451 10 1.6 4.8 0.00 0.00 0.00 74 1013.6
20260506000910 10 4.8 8.0 0.00 0.00 0.00 74 1013.4
20260506000324 10 1.6 4.8 0.00 0.00 0.00 73 1013.4
20260505235824 10 4.8 8.0 0.00 0.00 0.00 73 1013.5
20260505235317 10 3.2 8.0 0.00 0.00 0.00 73 1013.3
20260505234812 10 1.6 4.8 0.00 0.00 0.00 73 1013.4
20260505234312 10 3.2 8.0 0.00 0.00 0.00 73 1013.3
20260505233811 10 6.4 12.9 0.00 0.00 0.00 74 1013.3
20260505233326 10 3.2 8.0 0.00 0.00 0.00 74 1013.3
20260505232820 11 3.2 9.7 0.00 0.00 0.00 75 1013.4
20260505232319 11 3.2 6.4 0.00 0.00 0.00 77 1013.4
20260505231819 11 1.6 6.4 0.00 0.00 0.00 78 1013.4
20260505231319 11 4.8 11.3 0.00 0.00 0.00 78 1013.4
20260505230818 11 3.2 6.4 0.00 0.00 0.00 78 1013.3
20260505230317 11 6.4 9.7 0.00 0.00 0.00 77 1013.3
20260505225817 11 3.2 4.8 0.00 0.00 0.00 77 1013.3
20260505225317 11 0.0 1.6 0.00 0.00 0.00 76 1013.2
20260505224811 11 1.6 6.4 0.00 0.00 0.00 76 1013.4
20260505224241 11 1.6 4.8 0.00 0.00 0.00 76 1013.3
20260505223710 11 1.6 6.4 0.00 0.00 0.00 76 1013.3
20260505223124 11 3.2 4.8 0.00 0.00 0.00 76 1013.5
20260505222554 11 3.2 6.4 0.00 0.00 0.00 76 1013.4
20260505222023 11 3.2 12.9 0.00 0.00 0.00 76 1013.2
20260505221438 11 3.2 8.0 0.00 0.00 0.00 76 1013.5
20260505220907 11 3.2 8.0 0.00 0.00 0.00 75 1013.4
20260505220322 11 3.2 6.4 0.00 0.00 0.00 73 1013.4
20260505215821 11 11.3 14.5 0.00 0.00 0.00 71 1013.3
20260505215315 11 1.6 3.2 0.00 0.00 0.00 70 1013.4
20260505214814 11 1.6 4.8 0.00 0.00 0.00 70 1013.4
20260505214314 11 0.0 0.0 0.00 0.00 0.00 71 1013.4
20260505213813 11 3.2 11.3 0.00 0.00 0.00 71 1013.2
20260505213313 11 0.0 0.0 0.00 0.00 0.00 71 1013.1
20260505212812 11 0.0 3.2 0.00 0.00 0.00 71 1013.1
20260505212312 11 1.6 6.4 0.00 0.00 0.00 71 1013.1
20260505211811 11 0.0 4.8 0.00 0.00 0.00 72 1013.2
20260505211325 11 0.0 0.0 0.00 0.00 0.00 71 1013.0
20260505210824 11 0.0 0.0 0.00 0.00 0.00 70 1013.1
20260505210239 11 0.0 0.0 0.00 0.00 0.00 70 1013.1
20260505205703 12 0.0 3.2 0.00 0.00 0.00 68 1013.2
20260505205133 12 3.2 8.0 0.00 0.00 0.00 67 1013.0
20260505204545 12 3.2 6.4 0.00 0.00 0.00 66 1013.2
20260505204029 12 1.6 8.0 0.00 0.00 0.00 65 1012.9
20260505203439 12 0.0 0.0 0.00 0.00 0.00 65 1013.0
20260505202908 12 0.0 1.6 0.00 0.00 0.00 64 1013.0
20260505202322 12 0.0 1.6 0.00 0.00 0.00 64 1012.7
20260505201821 12 1.6 6.4 0.00 0.00 0.00 64 1012.7
20260505201320 12 0.0 0.0 0.00 0.00 0.00 63 1012.8
20260505200819 12 0.0 0.0 0.00 0.00 0.00 62 1012.8
20260505200313 12 3.2 9.7 0.00 0.00 0.00 61 1012.6
20260505195813 12 3.2 6.4 0.00 0.00 0.00 61 1012.7
20260505195311 12 4.8 6.4 0.00 0.00 0.00 61 1012.5
20260505194811 12 4.8 11.3 0.00 0.00 0.00 61 1012.2
20260505194240 12 0.0 3.2 0.00 0.00 0.00 61 1012.3
20260505193709 12 0.0 0.0 0.00 0.00 0.00 61 1012.2
20260505193123 12 0.0 3.2 0.00 0.00 0.00 61 1012.1
20260505192553 13 0.0 0.0 0.00 0.00 0.00 60 1012.1
20260505192022 13 0.0 0.0 0.00 0.00 0.00 60 1012.1
20260505191451 13 0.0 0.0 0.00 0.00 0.00 60 1011.9
20260505190920 13 0.0 0.0 0.00 0.00 0.00 60 1012.0
20260505190325 13 0.0 0.0 0.00 0.00 0.00 59 1012.0
20260505185824 13 0.0 0.0 0.00 0.00 0.00 59 1011.9
20260505185317 13 0.0 0.0 0.00 0.00 0.00 59 1012.0
20260505184816 13 0.0 0.0 0.00 0.00 0.00 58 1012.0
20260505184311 13 0.0 3.2 0.00 0.00 0.00 58 1011.8
20260505183810 13 0.0 0.0 0.00 0.00 0.00 58 1011.9
20260505183325 13 0.0 0.0 0.00 0.00 0.00 57 1011.9
20260505182819 13 0.0 0.0 0.00 0.00 0.00 57 1011.7
20260505182318 13 0.0 1.6 0.00 0.00 0.00 57 1011.6
20260505181818 13 0.0 3.2 0.00 0.00 0.00 57 1011.7
20260505181318 14 0.0 3.2 0.00 0.00 0.00 56 1011.8
20260505180818 14 0.0 0.0 0.00 0.00 0.00 56 1011.9
20260505180316 14 0.0 0.0 0.00 0.00 0.00 56 1011.9
20260505175745 14 0.0 1.6 0.00 0.00 0.00 55 1011.8
20260505175215 14 0.0 3.2 0.00 0.00 0.00 55 1011.8
20260505174644 14 0.0 1.6 0.00 0.00 0.00 55 1011.9
20260505174023 14 0.0 1.6 0.00 0.00 0.00 55 1011.7
20260505173438 14 0.0 1.6 0.00 0.00 0.00 55 1011.8
20260505172907 15 0.0 3.2 0.00 0.00 0.00 54 1011.8
20260505172321 15 0.0 0.0 0.00 0.00 0.00 54 1011.8
20260505171821 15 0.0 0.0 0.00 0.00 0.00 54 1011.8
20260505171305 15 0.0 0.0 0.00 0.00 0.00 54 1011.7
20260505170729 15 0.0 0.0 0.00 0.00 0.00 53 1011.6
20260505170158 15 0.0 3.2 0.00 0.00 0.00 53 1011.8
20260505165448 15 0.0 4.8 0.00 0.00 0.00 53 1011.8
20260505164915 15 1.6 3.2 0.00 0.00 0.00 53 1011.8
20260505164323 15 0.0 0.0 0.00 0.00 0.00 53 1011.8
20260505163821 15 0.0 3.2 0.00 0.00 0.00 53 1011.8
20260505163319 15 0.0 1.6 0.00 0.00 0.00 53 1011.7
20260505162818 15 0.0 0.0 0.00 0.00 0.00 52 1011.6
20260505162317 16 0.0 0.0 0.00 0.00 0.00 52 1011.6
20260505161816 16 0.0 3.2 0.00 0.00 0.00 52 1011.8
20260505161331 16 0.0 0.0 0.00 0.00 0.00 51 1011.8
20260505160833 16 1.6 3.2 0.00 0.00 0.00 52 1011.9
20260505160322 16 0.0 1.6 0.00 0.00 0.00 51 1011.8
20260505153326 16 0.0 3.2 0.00 0.00 0.00 52 1011.9
20260505152819 16 0.0 4.8 0.00 0.00 0.00 52 1011.9
20260505152248 16 3.2 4.8 0.00 0.00 0.00 52 1011.9
20260505151711 16 0.0 3.2 0.00 0.00 0.00 52 1011.9
20260505151130 16 0.0 0.0 0.00 0.00 0.00 52 1012.2
20260505150558 16 0.0 3.2 0.00 0.00 0.00 52 1011.9
20260505124817 17 3.2 8.0 0.00 0.00 0.00 51 1012.7
20260505124316 17 3.2 6.4 0.00 0.00 0.00 51 1012.8
20260505123816 17 3.2 3.2 0.00 0.00 0.00 51 1012.6
20260505123314 17 1.6 3.2 0.00 0.00 0.00 51 1012.8
20260505122811 17 0.0 1.6 0.00 0.00 0.00 51 1012.6
20260505122240 17 3.2 8.0 0.00 0.00 0.00 51 1012.6
20260505121710 17 3.2 11.3 0.00 0.00 0.00 50 1012.6
20260505121122 18 4.8 9.7 0.00 0.00 0.00 50 1012.7
20260505120622 18 1.6 4.8 0.00 0.00 0.00 52 1012.7
20260505115703 17 9.7 17.7 0.00 0.00 0.00 52 1012.6
20260505115130 17 1.6 9.7 0.00 0.00 0.00 52 1012.7
20260505114555 17 3.2 6.4 0.00 0.00 0.00 51 1012.6
20260505114024 17 3.2 4.8 0.00 0.00 0.00 51 1012.6
20260505113437 17 3.2 9.7 0.00 0.00 0.00 50 1012.9
20260505112921 18 4.8 12.9 0.00 0.00 0.00 50 1012.9
20260505112340 18 1.6 4.8 0.00 0.00 0.00 50 1012.9
20260505111711 18 3.2 6.4 0.00 0.00 0.00 51 1013.0
20260505111124 18 4.8 8.0 0.00 0.00 0.00 50 1012.9
20260505110553 19 1.6 4.8 0.00 0.00 0.00 50 1013.0
20260505101656 17 6.4 12.9 0.00 0.00 0.00 60 1013.1
20260505101126 17 3.2 6.4 0.00 0.00 0.00 61 1013.3
20260505100555 16 3.2 4.8 0.00 0.00 0.00 63 1013.3
20260505100052 15 3.2 6.4 0.00 0.00 0.00 64 1013.4
20260505095404 15 3.2 6.4 0.00 0.00 0.00 63 1013.3